Timeline UpdatesTrip UpdatesNews PostsPvt Posts♥♥Travel TipsAdmin PostsConv PostsFollowed PostsChat RequestsBlog PostsPNR Posts

Disclaimer
Search
 
 
Sat Dec 20, 2014 20:35:25 ISTHomeTrainsΣChainsAtlasPNRForumGalleryNewsFAQTripsMembersLoginFeedback
No Recent News for this Train
Other Trains in the News **new
Latest...
MST holders permitted to travel in IInd class general coaches between Saharanpur-Merrut-Ghaziabad.
Sun Nov 23, 2014 (07:51PM)
⇐ Return Journey: Train# 19019

19020/Dehradun - Mumbai Bandra Terminus Express

Time-Table HAS CHANGED.
Nov 23 (7:51PM)
Change Departure Station:
Change Arrival Station:
Post a Train Travel TipPost a Train Travel Tip **new
Post a Comment/Question/Picture/VideoPost a Comment/Question/Picture/Video
Pantry/Catering
✕ NO Pantry Car
✓ Catering Avbl
Loco/Rake Reversals
SRE/Saharanpur Junction (6); LRJ/Laksar Junction (4);
RSA - Rake Sharing
Rake/Coach Composition
LOCO-SLR-HCPV-GEN-GEN-AB1-S1-S2-S3-S4-S5-S6-S7-S8-S9-SLR
Loco
GZB WAP-7 NZM-BDTS. ddn to nzm tkd wdp 3a. By Er...
Read more...
Ankit Shotra Bhagat Entry# 595554
News    PNR    Forum    Time-Table    Availability    Fare Chart    Map    Arr/Dep History    Trips    Gallery    ΣChains    X/O    Timeline    
Travel Time: 38h 42m    82 halts    Distance: 1612 km    Avg Speed: 41 km/hr
Type: Mail/Express
Zone: WR/Western
Departs @ 12:45 (Avg 14m late)
Platform# 3
SMTWTFS
Haridwar Junction/HW 
Arrives @ 03:27 +2 nights (Avg 5m late)
Platform# 5
SMTWTFS
Mumbai Borivali/BVI 

82 halts. 250 intermediate Stations between Haridwar Junction and Mumbai Borivali

Show ALL intermediate Stations  Show Old Time-Table

#TrkCodeStation NameX/OArrivesAvgDepartsAvgHaltPFDay#KmSpeedElevZoneAddress
1%--%DDNDehradun (4)  -10:35 10:30+321-51.738648mNRDehradun, Uttarakhand
2%--%DWODoiwala  11:04 11:01+811:06 11:03+82m--1-31.841484mNRDehradun, Uttarakhand
3%--%RWLRaiwala Junction (2)X  11:38 11:33+1311:40 11:35+202m21-11.117361mNRRishikesh, Uttarakhand
4%--%MOTCMotichur (2)  12:00 11:58+912:02 12:00+152m11-4.518312mNRHaridwar, Uttarakhand
5|--|HWHaridwar Junction (9)»X  12:15+1212:45+1430m310.048294mNRHaridwar, Uttarakhand
6%--%JWPJwalapurX  12:53 12:50+1912:55 12:52+192m--14.020292mNRHaridwar, Uttarakhand
7%--%LRJLaksar Junction (4)X14:00+1314:25+1125m--126.953238mNRLaksar, Uttarakhand
8/==/RKRoorkee (3)X  14:43 14:45+1014:45 14:50+92 5m3144.746264mNRRoorkee - 247667, Uttarakhand
9/==/SRESaharanpur Junction (6)X15:35+1116:05+530m4179.448276mNRSaharanpur, Uttar Pradesh
10%--%DBDDeoband (2)  16:50 16:48+1616:52 16:50+192m21113.644258mNRSaharanpur, Uttar Pradesh
11%--%MOZMuzaffarnagar (3)X  17:20 17:23+1717:22 17:25+282m21137.763247mNRMuzaffarNagar, Uttar Pradesh
12%--%KATKhatauli (2)  17:42 17:46+3217:44 17:48+342m11159.876239mNRKhatauli, Uttar Pradesh
13%--%MUTMeerut Cantt. (2)  18:08 18:11+4018:10 18:13+402m11188.912230mNRMeerut, Uttar Pradesh
14%--%MTCMeerut City Junction (6)X18:35+2919:20+1245m41193.273229mNRMeerut, Uttar Pradesh
15%==%MDNRModinagar (2)X  19:34 19:36+1719:36 19:38+172m21212.755221mNRGhaziabad, Uttar Pradesh
16%==%MUDMuradnagar (2)X  19:45 19:49+1719:47 19:51+172m21222.859220mNRGhaziabad, Uttar Pradesh
17%==%GZNNew Ghaziabad (2)XO  20:02 20:03+920:04 20:05+92m21234.614213mNRGhaziabad, Uttar Pradesh
18%==%GZBGhaziabad Junction (6)XO  20:30 20:31+920:32 20:33+112m41240.534217mNRGhaziabad, Uttar Pradesh
19/==/SBBSahibabad Junction (5)X  20:41 20:45+1520:43 20:46+162 1m--1247.233209mNRGhaziabad, Uttar Pradesh
20/==/NZMDelhi Hazrat Nizamuddin (7)O21:15+2021:55+1540m11263.225209mNRNew Delhi 110013, Delhi NCT
21/==/TKDTuglakabad (2)O  22:18+1822:20+182m11272.944213mNRNear Tughlakabad Metro Station, Delhi NCT
22/==/FDBFaridabad (4)O  22:44 22:35+1522:46 22:36+172 1m31284.035206mNRold Faridabad, Haryana
23/==/BVHBallabgarh (5)XO  22:58 22:50+1523:00 22:52+172m--1292.129203mNRFaridabad, Haryana
24/==/PWLPalwal (8)X  23:36+323:38+52m--1313.285200mNRPalwal, Haryana
25/==/KSVKosi Kalan (3)O  00:08+2100:10+232m22355.729189mNCRKosi Kalan, Uttar Pradesh
26/==/MTJMathura Junction (10)XO  01:35+101:45 01:40+610 5m32397.261179mNCRMathura, Uttar Pradesh
27/==/BTEBharatpur Junction (5)  02:10 02:13+302:15+65 2m--2430.784174mWCRBharatpur, Rajasthan
28/==/BXNBayana Junction (3)X  02:45+902:47+102m--2472.770198mWCRBayana, Rajasthan
29/==/HANHindaun City (2)  03:15+1703:17+192m--2505.656230mWCRKarauli, Rajasthan
30/==/SMBJShri Mahabirji (3)O  03:26 03:28+1803:28 03:30+182m--2515.841240mWCRKarauli, Rajasthan
31/==/GGCGangapur City (3)  04:10 04:20+304:20 04:25+810 5m--2549.863270mWCRGangapur, Rajasthan
32/==/MLZMalarnaX  04:50 04:57+804:52 04:59+92m--2583.686236mWCRSawai Madhopur, Rajasthan
33/==/SWMSawai Madhopur Junction (4)X  05:20+1405:25+145m--2613.878266mWCRSawai Madhopur, Rajasthan
34/==/IDGIndargarh Sumerganj Mandi (2)X  05:48 05:53+1505:50 05:55+172m--2650.066247mWCRIndargarh, Rajasthan
35/==/LKELakheri (3)  05:58 06:05+1706:00 06:07+182m--2661.069228mWCRBundi, Rajasthan
36/==/KPTNKeshorai PatanXO  06:38 06:48+2006:40 06:50+212m--2708.153243mWCRSH 33, Rajasthan
37/==/GQLGurlaO  06:48 06:59+2306:50 07:00+262 1m--2716.011251mWCRSH 33, Rajasthan
38|--|KOTAKota Junction (5)X07:30+1207:50+1620m22721.433256mWCRKota, Rajasthan
39/==/DKNTDakaniya Talav (2)  08:01 08:07+1508:03 08:08+182 1m22730.879278mWCRKota, Rajasthan
40/==/DARADara  08:30 08:37+2108:32 08:39+222m--2768.963354mWCRDara, Rajasthan
41/==/MKXMorak (2)X  08:48 08:53+2308:50 08:55+242m--2783.642337mWCRMorak, Rajasthan
42/==/RMARamganj Mandi Junction (3)  09:03 09:08+2209:05 09:10+252m--2792.757358mWCRRamganj Mandi, Rajasthan
43/==/JHWJhalawar Road (3)  09:18 09:23+2409:20 09:25+242m--2805.155361mWCRJhalawar City, Rajasthan
44/==/BWMBhawani Mandi (3)  09:38 09:43+2209:40 09:45+262m--2821.576384mWCRBhawani Mandi, Madhya Pradesh
45/==/GOHGaroth (2)  09:58 10:03+2810:00 10:05+282m12844.228441mWCRMadhya Pradesh 458880, Madhya Pradesh
46/==/SGZShamgarh (3)X  10:25 10:28+1810:30+235 2m--2855.067463mWCRMandsaur, Madhya Pradesh
47/==/SVASuwasra (2)  10:42+2510:44+272m--2868.566450mWCRSuwasra, Madhya Pradesh
48/==/CMUChau Mahla (3)  10:58+2711:00+292m12883.835426mWCRJhalawar, Rajasthan
49/==/THURThuriaX  11:24+1711:26+202m--2898.021430mWCRMDR 45, Madhya Pradesh
50/==/VMAVikramgarh Alot (2)  11:48+1011:50+152m12905.761443mWCRKota Division, Madhya Pradesh
51/==/LNRLuni Richha  12:03+1512:05+152m--2918.928471mWCRAlote, Madhya Pradesh
52/==/MEPMahidpur Road  12:28+212:30+52m--2929.529493mWCRGogapur, Madhya Pradesh
53/==/NADNagda Junction (4)  13:05+513:15+710m--2946.664468mWRNagda, Madhya Pradesh
54/==/KUHKhachrod (2)  13:26 13:28+913:28 13:30+102m--2960.457497mWRUjjain, Madhya Pradesh
55/==/RNHRunkheraX  13:39 13:41+913:41 13:42+92 1m--2970.955478mWRUjjain, Madhya Pradesh
56/==/BODBangrodX  13:48 13:50+1113:50 13:51+112 1m--2978.225484mWRRatlam, Madhya Pradesh
57/==/RTMRatlam Junction (7)X  14:15+714:35+1020m42988.070495mWRRatlam 457001, Madhya Pradesh
58/==/RTIRaoti (2)  14:56 14:58+1614:58 14:59+162 1m--21015.065409mWRState Highway 39A, Madhya Pradesh
59/==/BOGBhairongarh (2)  15:08 15:10+1615:10 15:11+162 1m--21026.845374mWRBhairongarh Railway Station, Madhya Pradesh
60/==/BMIBamnia (2)  15:17 15:19+1615:19 15:21+162m--21032.842392mWRBamnia, Madhya Pradesh
61/==/AGRAmargarh (2)  15:25 15:27+1615:27 15:28+172 1m--21037.052410mWRSH 39A, Madhya Pradesh
62/==/PCNPanch Pipila (2)  15:37 15:39+1615:39 15:40+162 1m--21046.476369mWRSH 39A, Madhya Pradesh
63/==/THDRThandla Road (2)X  15:49 15:51+1715:51 15:53+182m--21060.460317mWRJhabua, Madhya Pradesh
64/==/MGNMeghnagar (3)  15:59 16:01+1816:01 16:03+182m--21068.373317mWRJhabua, Madhya Pradesh
65/==/ANASAnas (2)  16:13 16:15+2016:15 16:16+202 1m--21082.968288mWRMadhya Pradesh 389154 ?, Madhya Pradesh
66/==/BIOBordi (2)  16:21 16:23+2016:23 16:24+202 1m--21090.958289mWRNational Highway 59, Gujarat
67/==/DHDDahod (3)  16:35+2616:40 16:37+295 2m--21101.564313mWRDahod, Gujarat
68/==/LMKLimkheda  17:06 17:08+2817:08 17:09+282 1m--21134.460205mWRLimkheda, Gujarat
69/==/PPDPiplod Junction  17:15 17:17+2817:17 17:19+272m--21142.379209mWRPiplod, Gujarat
70/==/SATSant Road (2)X  17:26 17:28+2717:28 17:30+262m221154.220169mWROrwara, Gujarat
71/==/GDAGodhra Junction (3)X  18:30+318:35+65m1021174.654122mWRGodhra, Gujarat
72/==/KRSAKharsaliya (2)  18:45 18:47+818:47 18:48+82 1m--21185.476107mWRPanchmahal, Gujarat
73/==/DRLDerolX  18:56 18:58+918:58 19:00+92m121198.16881mWRKalol, Gujarat
74/==/CPNChampaner Road JunctionXO  19:09 19:11+819:11 19:13+82m--21210.67578mWRPanchmahal, Gujarat
75/==/SMLASamlaya Junction (3)X  19:20 19:22+819:22 19:24+82m--21221.85267mWRVadodara, Gujarat
76/==/BRCVadodara Junction (7)  19:55+1620:05+1710m321248.58136mWRVadodara 390005, Gujarat
77/==/MYGMiyagam Karjan (2)  20:25 20:27+2120:27 20:28+212 1m--21278.37029mWRKarjan, Gujarat
78/==/BHBharuch Junction (5)X  21:01 21:03+2221:03 21:05+212m421319.06219mWRBharuch, Gujarat
79/==/AKVAnkleshwar Junction (4)X  21:12 21:14+2121:14 21:16+212m221328.39319mWRAnkleshwar, Gujarat
80/==/KSBKosamba Junction (3)X21:29 21:28+2421:31 21:30+252m--21346.83130mWRKosamba, Gujarat
81/==/STSurat (4)X  22:30+522:38+58m221378.27419mWRSurat 395001, Gujarat
82/==/NVSNavsari (3)  23:03 23:02+1123:05+122 3m--21407.97914mWRNavsari, Gujarat
83/==/BIMBilimora Junction (4)X  23:21+1623:23+162m--21429.03611mWRBilimora, Gujarat
84/==/BLValsad (3)  23:53+1223:55+202m321447.03815mWRValsad, Gujarat
85/==/VAPIVapi (3)X  00:36+1100:38+142m--31473.26827mWRVapi, Gujarat
86/==/PLGPalghar (3)  02:04 01:50+3102:06 02:02+252 12m--31554.73519mWRPalghar, Maharashtra
87/==/VRVirar (8)  02:56+902:58+102m--31585.8536mWRDist. Palghar, Maharashtra
88/==/BVIMumbai Borivali (8)•O  03:30 03:27+503:32+52 5m531611.72319mWRMumbai - 400092, Maharashtra
89/==/BDTSMumbai Bandra Terminus (5)  04:20-3-131630.4-4mWRMumbai 400050, Maharashtra
Scroll to Top
Scroll to Bottom


Go to Mobile site